Location: Mohawk View
(42.7837°N, 73.7885°W)
Time: 17:02:35
(UTC+00:00)

Cosmos 2369 Rocket - Pass Details

Date: 17 June 2021
Orbit: 828 x 854 km, 71.0° (Epoch: 02 August)

Event Time Altitude Azimuth Distance (km) Brightness Sun altitude
Rises 08:04:58 0° 314° (NW) 3,429 5.4 -10.8°
Reaches altitude 10° 08:09:19 10° 283° (WNW) 2,485 4.3 -10.3°
Maximum altitude 08:11:06 11° 265° (W) 2,375 4.1 -10.1°
Enters shadow 08:12:48 10° 247° (WSW) 2,470 4.0 -9.8°
